CZ-6A DEB, 54562

Orbit data source: Space-Track

CZ-6A DEB, 54562 is space debris in SSO originally from a launch on Fri, 11 Nov 2022 UTC launched from the Taiyaun Space Center, China (TSC). Debris objects in space refer to the collection of defunct objects orbiting the Earth. Examples of debris include non-operational satellites, rocket bodies, and fragments generated from explosions, collisions, or faulty payload assembly.

Loading next visibility...
Identifier
54562, 2022-151LN
Orbit
SSO
Country
Flag of CNCN / PRC
Related business
Manufacturer
SAST
Mission
Spacecraft
Bus & Motor
Unknown
Mass
Unknown
Launch date (UTC)
2022-11-11 (4 years ago)
Launch vehicle
Unknown
Launch site
Taiyaun Space Center, China (TSC)
Object type
Payload
Rocket body
Debris
Shape & HBR
Unknown shape, 0.1 m
Radar Cross Section
Small (<0.1 m²)

Expand to show TLE details & history
Last TLE update: 4 days ago

TLE from 4 days ago
0 CZ-6A DEB
1 54562U 22151LN  26169.03933713  .00000902  00000-0  34675-3 0  9995
2 54562  98.6960 198.5511 0060589 320.6180  39.0606 14.31878358187435
Epoch: 2026-06-18T00:56Z
TLE epoch observation values (Epoch: 2026-06-18T00:56:38.728Z)
Latitude
0.00006°
Longitude
-81.89866°
Altitude
754.787 km
Speed
7.495 km/s
True Right ascension
13h 14m 12s
True Declination
0° 00' 00"
Sunlit
Object was in daylight at epoch
Visualization orbit readout
Latitude
Unknown
Longitude
Unknown
Altitude
Unknown
Speed
Unknown
Apparent Right ascension
Unknown
Apparent Declination
Unknown
Sunlit
N/A
Visualization observer readout
Local Sidereal Time
21:24:49
Azimuth
Unknown
Elevation
Unknown
Doppler factor
Unknown
Orbital elements
Apogee altitude
825.987 km
Perigee altitude
739.215 km
Semi-major axis
7,160.738 km
Eccentricity
0.00606
Inclination
98.696°
RAAN
198.5511°
Arg. of periapsis
320.618°
True anomaly
39.50069°
Mean anomaly
39.0606°
Eccentric anomaly
39.28039°
Mean motion
3.58184 °/min
Orbital period
100.51 mins
BSTAR
0.00034675
Loading maneuver chart data...
Computing Atmospheric mass density...
Loading historical data...
Loading historical data...
Loading historical data...
Loading historical data...
Loading historical data...
Loading historical data...
Loading historical data...

Documentation

Showing up to 5 results
|